• In Hungary
  • List of Countries
  • For 7 days
  • Water Temperature
  • Satellite Maps
  • Weather Map
  • News
  • Weather Widgets
  • user-avatar
    Login

    Hourly Weather Veselaya Bahmutovka

    Today, 16 December, Saturday

    Time Temperature Precipitation Wind Pressure Humidity
    00:00 +5°C° 0 mm 2 mps 757 mmHg 95%
    01:00 +5°C° 0 mm 2 mps 757 mmHg 96%
    02:00 +6°C° 0 mm 2 mps 757 mmHg 96%
    03:00 +6°C° 0 mm 2 mps 757 mmHg 96%
    04:00 +6°C° 0 mm 2 mps 757 mmHg 95%
    05:00 +5°C° 0 mm 3 mps 758 mmHg 95%
    06:00 +5°C° 0 mm 3 mps 758 mmHg 95%
    07:00 +5°C° 0 mm 4 mps 758 mmHg 92%
    08:00 +5°C° 0 mm 4 mps 758 mmHg 89%
    09:00 +5°C° 0 mm 4 mps 758 mmHg 87%
    10:00 +6°C° 0 mm 4 mps 758 mmHg 81%
    11:00 +7°C° 0 mm 5 mps 758 mmHg 76%
    12:00 +7°C° 0 mm 5 mps 758 mmHg 70%
    13:00 +8°C° 0 mm 5 mps 758 mmHg 70%
    14:00 +8°C° 0 mm 5 mps 757 mmHg 70%
    15:00 +8°C° 0 mm 5 mps 757 mmHg 69%
    16:00 +7°C° 0 mm 5 mps 757 mmHg 72%
    17:00 +7°C° 0 mm 6 mps 757 mmHg 74%
    18:00 +5°C° 0 mm 6 mps 757 mmHg 76%
    19:00 +5°C° 0 mm 6 mps 757 mmHg 78%
    20:00 +5°C° 0 mm 6 mps 757 mmHg 81%
    21:00 +5°C° 0 mm 6 mps 757 mmHg 83%
    22:00 +4°C° 0 mm 6 mps 757 mmHg 85%
    23:00 +4°C° 0 mm 6 mps 758 mmHg 87%

    Tomorrow, 17 December, Sunday

    Time Temperature Precipitation Wind Pressure Humidity
    00:00 +4°C° 0 mm 6 mps 758 mmHg 89%
    01:00 +3°C° 0 mm 6 mps 758 mmHg 90%
    02:00 +3°C° 0 mm 6 mps 758 mmHg 90%
    03:00 +3°C° 0 mm 6 mps 758 mmHg 91%
    04:00 +3°C° 0 mm 6 mps 758 mmHg 91%
    05:00 +3°C° 0 mm 6 mps 758 mmHg 91%
    06:00 +3°C° 0 mm 6 mps 758 mmHg 90%
    07:00 +3°C° 0 mm 6 mps 758 mmHg 90%
    08:00 +3°C° 0 mm 6 mps 758 mmHg 89%
    09:00 +3°C° 0 mm 6 mps 758 mmHg 88%
    10:00 +4°C° 0 mm 6 mps 758 mmHg 85%
    11:00 +5°C° 0 mm 6 mps 758 mmHg 81%
    12:00 +5°C° 0 mm 7 mps 758 mmHg 78%
    13:00 +7°C° 0 mm 6 mps 757 mmHg 76%
    14:00 +7°C° 0 mm 6 mps 757 mmHg 75%
    15:00 +7°C° 0 mm 6 mps 757 mmHg 74%
    16:00 +7°C° 0 mm 6 mps 757 mmHg 76%
    17:00 +5°C° 0 mm 6 mps 757 mmHg 79%
    18:00 +5°C° 0 mm 6 mps 757 mmHg 81%
    19:00 +4°C° 0 mm 6 mps 757 mmHg 83%
    20:00 +4°C° 0 mm 6 mps 757 mmHg 84%
    21:00 +4°C° 0 mm 6 mps 757 mmHg 85%
    22:00 +4°C° 0 mm 6 mps 757 mmHg 85%
    23:00 +4°C° 0 mm 6 mps 757 mmHg 85%

    Day after tomorrow, 18 December, Monday

    Time Temperature Precipitation Wind Pressure Humidity
    00:00 +4°C° 0 mm 6 mps 756 mmHg 86%
    01:00 +4°C° 0.1 mm 6 mps 756 mmHg 86%
    02:00 +4°C° 0.1 mm 6 mps 756 mmHg 86%
    03:00 +4°C° 0.1 mm 6 mps 756 mmHg 86%
    04:00 +4°C° 0.3 mm 7 mps 756 mmHg 86%
    05:00 +4°C° 0.3 mm 7 mps 755 mmHg 87%
    06:00 +4°C° 0.3 mm 7 mps 755 mmHg 87%
    07:00 +4°C° 0.1 mm 7 mps 755 mmHg 86%
    08:00 +4°C° 0.1 mm 7 mps 755 mmHg 86%
    09:00 +4°C° 0.1 mm 7 mps 755 mmHg 85%
    10:00 +5°C° 0.3 mm 7 mps 755 mmHg 84%
    11:00 +5°C° 0.3 mm 7 mps 755 mmHg 83%
    12:00 +5°C° 0.3 mm 7 mps 755 mmHg 82%
    13:00 +5°C° 0.8 mm 7 mps 755 mmHg 83%
    14:00 +5°C° 0.8 mm 6 mps 755 mmHg 85%
    15:00 +5°C° 0.8 mm 6 mps 755 mmHg 86%
    16:00 +5°C° 0.1 mm 6 mps 755 mmHg 85%
    17:00 +7°C° 0.1 mm 6 mps 755 mmHg 84%
    18:00 +7°C° 0.1 mm 6 mps 755 mmHg 83%
    19:00 +6°C° 0 mm 5 mps 755 mmHg 85%
    20:00 +6°C° 0 mm 5 mps 755 mmHg 87%
    21:00 +6°C° 0 mm 4 mps 755 mmHg 89%
    22:00 +6°C° 0.2 mm 4 mps 756 mmHg 90%
    23:00 +5°C° 0.2 mm 4 mps 756 mmHg 91%

    19 December, Tuesday

    Time Temperature Precipitation Wind Pressure Humidity
    00:00 +5°C° 0.2 mm 3 mps 756 mmHg 92%
    01:00 +5°C° 0.5 mm 3 mps 756 mmHg 92%
    02:00 +5°C° 0.5 mm 2 mps 757 mmHg 91%
    03:00 +5°C° 0.5 mm 2 mps 757 mmHg 91%
    04:00 +5°C° 0.2 mm 2 mps 757 mmHg 90%
    05:00 +5°C° 0.2 mm 2 mps 757 mmHg 89%
    06:00 +5°C° 0.2 mm 2 mps 757 mmHg 87%
    07:00 +5°C° 0.2 mm 2 mps 757 mmHg 86%
    08:00 +4°C° 0.2 mm 2 mps 758 mmHg 85%
    09:00 +4°C° 0.2 mm 2 mps 758 mmHg 85%
    10:00 +4°C° 0.1 mm 2 mps 758 mmHg 81%
    11:00 +4°C° 0.1 mm 2 mps 758 mmHg 78%
    12:00 +3°C° 0.1 mm 3 mps 759 mmHg 75%
    13:00 +3°C° 0 mm 3 mps 759 mmHg 73%
    14:00 +3°C° 0 mm 3 mps 759 mmHg 71%
    15:00 +3°C° 0 mm 3 mps 759 mmHg 69%
    16:00 +4°C° 0 mm 2 mps 759 mmHg 71%
    17:00 +3°C° 0 mm 2 mps 760 mmHg 72%
    18:00 +3°C° 0 mm 2 mps 760 mmHg 74%
    19:00 +3°C° 0 mm 2 mps 760 mmHg 75%
    20:00 +2°C° 0 mm 2 mps 761 mmHg 76%
    21:00 +1°C° 0 mm 3 mps 761 mmHg 77%
    22:00 0°C° 0 mm 3 mps 761 mmHg 78%
    23:00 0°C° 0 mm 3 mps 762 mmHg 79%

    20 December, Wednesday

    Time Temperature Precipitation Wind Pressure Humidity
    00:00 -1°C° 0 mm 3 mps 762 mmHg 80%
    01:00 -1°C° 0 mm 2 mps 762 mmHg 79%
    02:00 -1°C° 0 mm 2 mps 762 mmHg 79%
    03:00 +1°C° 0 mm 1 mps 762 mmHg 78%
    04:00 +1°C° 0 mm 1 mps 763 mmHg 78%
    05:00 +1°C° 0 mm 1 mps 763 mmHg 79%
    06:00 +1°C° 0 mm 1 mps 763 mmHg 79%
    07:00 +1°C° 0 mm 1 mps 763 mmHg 79%
    08:00 +1°C° 0 mm 1 mps 764 mmHg 78%
    09:00 +1°C° 0 mm 1 mps 764 mmHg 77%
    10:00 +1°C° 0 mm 1 mps 764 mmHg 72%
    11:00 +2°C° 0 mm 1 mps 764 mmHg 68%
    12:00 +3°C° 0 mm 1 mps 764 mmHg 63%
    13:00 +3°C° 0 mm 1 mps 764 mmHg 62%
    14:00 +3°C° 0 mm 1 mps 764 mmHg 60%
    15:00 +2°C° 0 mm 0 mps 763 mmHg 59%
    16:00 +2°C° 0 mm 0 mps 764 mmHg 62%
    17:00 +2°C° 0 mm 1 mps 764 mmHg 66%
    18:00 +2°C° 0 mm 1 mps 764 mmHg 69%
    19:00 +2°C° 0 mm 1 mps 764 mmHg 69%
    20:00 +2°C° 0 mm 1 mps 764 mmHg 70%
    21:00 +2°C° 0 mm 1 mps 764 mmHg 71%
    22:00 +2°C° 0 mm 1 mps 764 mmHg 71%
    23:00 +2°C° 0 mm 1 mps 763 mmHg 72%

    21 December, Thursday

    Time Temperature Precipitation Wind Pressure Humidity
    00:00 +1°C° 0 mm 2 mps 763 mmHg 72%
    01:00 +1°C° 0 mm 2 mps 763 mmHg 73%
    02:00 -1°C° 0 mm 2 mps 763 mmHg 74%
    03:00 -1°C° 0 mm 2 mps 763 mmHg 74%
    04:00 -1°C° 0 mm 3 mps 762 mmHg 75%
    05:00 -1°C° 0 mm 3 mps 762 mmHg 76%
    06:00 -1°C° 0 mm 3 mps 762 mmHg 77%
    07:00 -1°C° 0.3 mm 3 mps 761 mmHg 78%
    08:00 -1°C° 0.3 mm 3 mps 761 mmHg 80%
    09:00 -1°C° 0.3 mm 4 mps 761 mmHg 81%
    10:00 -1°C° 0.9 mm 4 mps 761 mmHg 85%
    11:00 -1°C° 0.9 mm 4 mps 760 mmHg 89%
    12:00 -1°C° 0.9 mm 4 mps 760 mmHg 92%
    13:00 -1°C° 0.7 mm 4 mps 759 mmHg 93%
    14:00 -1°C° 0.7 mm 4 mps 759 mmHg 94%
    15:00 -1°C° 0.7 mm 4 mps 758 mmHg 95%
    16:00 -1°C° 0.4 mm 4 mps 758 mmHg 96%
    17:00 -1°C° 0.4 mm 4 mps 758 mmHg 96%
    18:00 -1°C° 0.4 mm 4 mps 758 mmHg 96%
    19:00 -1°C° 0.2 mm 4 mps 758 mmHg 97%
    20:00 0°C° 0.2 mm 3 mps 757 mmHg 97%
    21:00 0°C° 0.2 mm 3 mps 757 mmHg 97%
    22:00 0°C° 0.2 mm 3 mps 757 mmHg 97%
    23:00 0°C° 0.2 mm 3 mps 757 mmHg 97%
    Show more